Location: G�ppingen
(48.7000°N, 9.6670°E)
Time: 06:28:58
(UTC+01:00)

ISS - Visible Passes

Search period start: 19 March 2019 00:00
Search period end: 29 March 2019 00:00
Orbit: 406 x 411 km, 51.6° (Epoch: 19 March)

Date Brightness Start Highest point End Pass type
(mag) Time Alt. Az. Time Alt. Az. Time Alt. Az.
21 Mar -1.8 20:27:43 10° SSW 20:28:51 18° SSW 20:28:51 18° SSW visible
22 Mar -2.3 19:37:19 10° S 19:39:48 20° SE 19:40:43 18° ESE visible
22 Mar -1.2 21:12:44 10° WSW 21:13:29 16° WSW 21:13:29 16° WSW visible
23 Mar -3.9 20:21:44 10° SW 20:24:59 61° SSE 20:25:07 60° SE visible
24 Mar -3.2 19:30:53 10° SW 19:33:59 39° SSE 19:36:34 14° E visible
24 Mar -2.2 21:07:13 10° W 21:09:19 35° W 21:09:19 35° W visible
25 Mar -3.8 20:16:03 10° WSW 20:19:21 79° NNW 20:20:37 35° ENE visible
25 Mar -0.6 21:52:56 10° WNW 21:53:22 13° WNW 21:53:22 13° WNW visible
26 Mar -3.8 19:24:58 10° WSW 19:28:15 75° SSE 19:31:34 10° ENE visible
26 Mar -2.8 21:01:44 10° W 21:04:31 45° NW 21:04:31 45° NW visible
27 Mar -3.3 20:10:30 10° W 20:13:46 56° N 20:15:34 23° ENE visible
27 Mar -0.9 21:47:22 10° WNW 21:48:19 17° WNW 21:48:19 17° WNW visible
28 Mar -3.5 19:19:17 10° W 19:22:35 69° NNW 19:25:53 10° ENE visible
28 Mar -3.1 20:56:10 10° WNW 20:59:17 48° N 20:59:17 48° N visible
